Location: Bucquoy
(50.1391°N, 2.7097°E)
Time: 09:24:02
(UTC+00:00)

Gblst 52 Del rocket - Pass Details

Date: 06 May 2021
Orbit: 805 x 1365 km, 51.5° (Epoch: 21 June)

Event Time Altitude Azimuth Distance (km) Brightness Sun altitude
Rises 01:35:11 0° 291° (WNW) 3,751 7.5 -19.1°
Reaches altitude 10° 01:38:02 10° 287° (WNW) 2,713 6.7 -18.9°
Maximum altitude 01:44:04 48° 215° (SW) 1,141 4.4 -18.4°
Drops below altitude 10° 01:49:28 10° 142° (SE) 2,436 6.4 -18.0°
Sets 01:51:55 0° 136° (SE) 3,334 7.2 -17.7°
